Location: Gisborne
(38.6530°S, 178.0040°E)
Time: 22:53:33
(UTC+13:00)

Meteor 1-26 Rocket - Pass Details

Date: 24 January 2019
Orbit: 818 x 917 km, 81.3° (Epoch: 15 October)

Event Time Altitude Azimuth Distance (km) Brightness Sun altitude
Exits shadow 22:56:26 39° 352° (N) 1,312 4.8 -23.1°
Maximum altitude 22:58:45 89° 268° (W) 897 4.2 -23.3°
Drops below altitude 10° 23:04:33 10° 171° (S) 2,539 7.3 -24.0°
Sets 23:06:59 0° 171° (S) 3,468 8.1 -24.3°
